TimeEST,TemperatureF,Dew PointF,Humidity,Sea Level PressureIn,VisibilityMPH,Wind Direction,Wind SpeedMPH,Gust SpeedMPH,PrecipitationIn,Events,Conditions,WindDirDegrees,DateUTC
12:56 AM,15.4,-7.2,36,30.28,12.0,WNW,10.4,-,N/A,,Clear,290,2014-01-07 05:56:00
1:56 AM,14.7,-7.4,37,30.31,12.0,WNW,9.2,18.4,N/A,,Clear,300,2014-01-07 06:56:00
2:56 AM,13.8,-7.8,38,30.36,12.0,NW,12.7,17.3,N/A,,Clear,320,2014-01-07 07:56:00
3:56 AM,12.4,-6.3,43,30.39,12.0,NW,4.6,-,N/A,,Clear,320,2014-01-07 08:56:00
4:56 AM,10.9,-2.7,54,30.40,12.0,NNW,3.5,-,N/A,,Clear,340,2014-01-07 09:56:00
5:56 AM,10.4,-4.0,52,30.44,12.0,NW,5.8,-,N/A,,Clear,320,2014-01-07 10:56:00
6:56 AM,9.7,-4.5,53,30.45,12.0,NNW,4.6,-,N/A,,Clear,340,2014-01-07 11:56:00
7:56 AM,10.4,-2.4,56,30.48,12.0,West,3.5,-,N/A,,Clear,270,2014-01-07 12:56:00
8:56 AM,13.5,-5.6,43,30.51,12.0,NW,8.1,-,N/A,,Clear,310,2014-01-07 13:56:00
9:56 AM,15.8,-8.0,34,30.54,12.0,NW,12.7,-,N/A,,Clear,310,2014-01-07 14:56:00
10:56 AM,19.0,-7.4,31,30.53,12.0,NW,5.8,13.8,N/A,,Clear,310,2014-01-07 15:56:00
11:56 AM,21.6,-8.0,27,30.49,12.0,NW,8.1,13.8,N/A,,Clear,310,2014-01-07 16:56:00
12:56 PM,22.8,-6.9,27,30.45,12.0,WSW,9.2,16.1,N/A,,Clear,250,2014-01-07 17:56:00
1:56 PM,24.6,-6.9,25,30.45,12.0,Variable,5.8,13.8,N/A,,Clear,0,2014-01-07 18:56:00
2:56 PM,25.5,-6.3,25,30.44,12.0,West,11.5,17.3,N/A,,Clear,270,2014-01-07 19:56:00
3:56 PM,25.9,-4.2,27,30.47,12.0,WSW,8.1,-,N/A,,Clear,240,2014-01-07 20:56:00
4:56 PM,25.0,-2.7,30,30.47,12.0,WNW,6.9,-,N/A,,Clear,290,2014-01-07 21:56:00
5:56 PM,23.2,-0.6,36,30.50,12.0,West,4.6,-,N/A,,Clear,270,2014-01-07 22:56:00
6:56 PM,22.3,0.9,39,30.52,12.0,WSW,5.8,-,N/A,,Clear,250,2014-01-07 23:56:00
7:56 PM,18.5,6.8,60,30.53,12.0,SSW,2.3,-,N/A,,Clear,200,2014-01-08 00:56:00
8:55 PM,17.6,10.4,73,30.55,10.0,SSE,2.3,-,N/A,,Clear,160,2014-01-08 01:55:00
9:56 PM,17.6,8.1,66,30.57,10.0,WSW,2.3,-,N/A,,Clear,240,2014-01-08 02:56:00
10:56 PM,15.8,10.6,80,30.56,10.0,South,2.3,-,N/A,,Clear,170,2014-01-08 03:56:00
11:55 PM,15.8,12.4,86,30.55,10.0,SSW,1.2,-,N/A,,Clear,210,2014-01-08 04:55:00